Regional Weather Roundup
Issued by NWS

Home | Current Version | Previous Version | Graphics & Text | Print | Product List | Glossary On
Versions: 1 2 3 4 5 6 7 8 9 10 11 12 13 14 15 16 17 18 19 20 21 22 23 24 25 26 27 28 29 30 31 32 33 34 35 36 37 38 39 40 41 42 43 44 45 46 47 48 49 50
000
ASUS43 KDTX 291010
RWRMI
MICHIGAN HOURLY REGIONAL WEATHER ROUNDUP
NATIONAL WEATHER SERVICE DETROIT/PONTIAC MI
600 AM EDT SUN MAY 29 2016

NOTE: "FAIR" INDICATES FEW OR NO CLOUDS BELOW 12,000 FEET WITH NO
SIGNIFICANT WEATHER AND/OR OBSTRUCTION TO VISIBILITY.

MIZ047>049-052>055-059>063-066>070-074>076-081>083-291100-
SOUTHEAST LOWER MICHIGAN

CITY           SKY/WX    TMP DP  RH WIND       PRES   REMARKS
ADRIAN         CLOUDY    69  64  84 S6        30.05S
ALMA           CLOUDY    69  65  87 S10       29.97S
ANN ARBOR      CLOUDY    68  63  84 S5        30.03F
BAD AXE        CLEAR     67  63  86 S5        30.01S
CARO           CLOUDY    68  63  82 S3        30.00S
DETROIT CITY   CLOUDY    70  62  76 S3        30.04S
DETROIT        CLOUDY    69  64  84 S5        30.05R
FLINT          CLOUDY    73  63  70 S8        30.01R
GROSSE ILE     CLOUDY    66  64  94 S5        30.03S
HILLSDALE      CLOUDY    67  64  91 S6        30.04S FOG
HOWELL         CLOUDY    70  65  83 S8        30.02F

CITY           SKY/WX    TMP DP  RH WIND       PRES   REMARKS
JACKSON        CLOUDY    68  65  90 S8        30.02S
LAMBERTVILLE   CLOUDY    71  64  79 S6        30.05S
LANSING        MOCLDY    69  64  84 S9        29.99F
LAPEER         FAIR      69  62  78 SE5       30.03R
MASON          CLOUDY    68  64  88 S8        30.01S
MONROE         CLOUDY    69  64  84 S5        30.04S
MT. CLEMENS    MOCLDY    64  64 100 S5        30.03R
PONTIAC        CLOUDY    70  63  78 S6        30.03S
PORT HOPE        N/A     71  64  78 VRB5      29.98S
PORT HURON     CLEAR     64  63  94 S3        30.04S
TRI CITIES     PTCLDY    72  65  78 S8        29.97F
MIDLAND        FAIR      69  65  86 S5        29.95F
TROY           LGT RAIN  70  64  83 S5        30.05S
SAGINAW HB     CLOUDY    70  63  78 S9        29.98S
$$
MIZ043>046-050>051-056>058-064>065-071>073-077>080-291100-
SOUTHWEST LOWER MICHIGAN

CITY           SKY/WX    TMP DP  RH WIND       PRES   REMARKS
BATTLE CREEK   CLOUDY    68  64  87 S10       29.99S
BENTON HARBOR  PTCLDY    66  60  81 S5        29.98R
BIG RAPIDS     PTCLDY    64  63  97 CALM      29.95R
COLDWATER      CLOUDY    68  65  89 S3        30.01F
FREMONT        FAIR      61  61 100 S3        29.95R
HOLLAND        PTCLDY    68  61  78 S10       29.97R
GRAND RAPIDS   MOCLDY    68  63  84 S9        29.97R
IONIA          FAIR      68  63  82 S8        29.97S
KALAMAZOO      PTCLDY    67  63  87 S7        30.00R
LUDINGTON      MOCLDY    65  60  85 S7        29.92S
MARSHALL       CLOUDY    69  65  86 S5        29.99F
MOUNT PLEASANT CLOUDY    68  64  88 S6        29.96R
MUSKEGON       MOCLDY    67  57  70 S13       29.95S
SOUTH HAVEN    CLEAR     65  64  96 S5        29.98R
$$
MIZ016>042-291100-
NORTHERN LOWER MICHIGAN

CITY           SKY/WX    TMP DP  RH WIND       PRES   REMARKS
ALPENA         PTCLDY    69  63  81 S3        29.93F
BEAVER ISLAND  PTCLDY    55  54  94 CALM      29.89S
BELLAIRE       CLOUDY    65  62  90 CALM      29.91R
CADILLAC       MOCLDY    64  60  87 S5        29.95R
CHARLEVOIX     MOCLDY    67  62  84 S6        29.92S
FRANKFORT      CLOUDY    65  61  88 S7        29.91R
GAYLORD        PTCLDY    66  62  87 SW6       29.93R
GRAYLING       MOCLDY    66  63  89 CALM      29.95R
HARBOR SPRINGS PTCLDY    64  61  88 S3        29.89S
HOUGHTON LAKE  PTCLDY    67  62  84 S7        29.95S
MANISTEE       PTCLDY    63  55  77 S3        29.93R
OSCODA         CLOUDY    70  65  84 S7        29.95S
PELLSTON       PTCLDY    64  60  87 CALM      29.89S
ROGERS CITY    PTCLDY    68  62  80 S8        29.92S
TRAVERSE CITY  MOCLDY    67  61  81 CALM      29.89R
$$
MIZ007>008-015-291100-
EASTERN UPPER MICHIGAN

CITY           SKY/WX    TMP DP  RH WIND       PRES   REMARKS
KINROSS          N/A     61  59  94 SE3       29.89F
MACKINAC ISLAN CLOUDY    62  62  99 CALM      29.88S
NEWBERRY       CLEAR     57  55  95 S8        29.87S
S. S. MARIE    CLEAR     60  58  92 NE3       29.89S FOG
MUNISING         N/A     61  57  87 S8        29.81S
$$
MIZ004>006-011>014-085-291100-
CENTRAL UPPER MICHIGAN

CITY           SKY/WX    TMP DP  RH WIND       PRES   REMARKS
MANISTIQUE     CLEAR     53  52  97 S5        29.87R
ESCANABA       PTCLDY    57  54  88 S7        29.84R
MENOMINEE      CLEAR     62  61  96 SW8       29.85R
SAWYER-GWINN   CLOUDY    60  58  94 S10       29.82S
$$
MIZ001>003-009>011-084-291100-
WESTERN UPPER MICHIGAN

CITY           SKY/WX    TMP DP  RH WIND       PRES   REMARKS
IRON MOUNTAIN  PTCLDY    61  59  93 S6        29.81R
HOUGHTON       FOG       57  55  93 CALM      29.75S VSB 1/4
COPPER HARBOR    N/A     48  48 100 CALM      29.76S
IRONWOOD       CLOUDY    55  54  94 CALM      29.75S
$$

ABBREVIATIONS USED IN REMARKS
   TC - TEMPERATURE IN CELSIUS
  WCI - WIND CHILL INDEX
   HX - HEAT INDEX
  VSB - VISIBILITY





USA.gov is the U.S. government's official web portal to all federal, state and local government web resources and services.